DateTimeUTC,F1_A11,F1_S11,BsB_S11,BsG_S11,BsR_S11,BbsB_S11,BbsG_S11,BbsR_S11,BaB_A11,BaG_A11,BaR_A11,Tu_S11,T_S11,Uu_S11,U_S11,P_S11,T1_A11
2021-07-17T10:00:00Z,00000200,20000000,,,,,,,-000.03,-000.09,-000.19,17.5,24.1,06.5,04.3,0674.9,30.9
2021-07-17T10:01:00Z,00000200,20000000,,,,,,,0000.10,0000.19,0000.27,17.5,24.1,06.5,04.3,0674.9,30.9
2021-07-17T10:02:00Z,00000200,20000000,,,,,,,-000.18,-000.00,-000.38,17.5,24.0,06.5,04.3,0674.9,30.9
2021-07-17T10:03:00Z,00000200,60000000,,,,,,,0000.19,-000.05,-000.09,17.5,24.1,06.5,04.3,0674.9,30.9
2021-07-17T10:04:00Z,00000200,40000000,0001.15,0000.70,-000.01,0000.48,0000.12,0000.22,0000.04,-000.09,0000.34,17.5,23.9,06.2,04.2,0675.8,30.9
2021-07-17T10:05:00Z,00000200,00000000,0001.12,0000.59,0000.11,0000.16,0000.23,0000.22,0000.09,0000.12,0000.18,17.6,23.9,06.2,04.2,0675.8,30.9
2021-07-17T10:06:00Z,00000200,00000000,0000.43,0000.04,0000.15,0000.10,0000.06,-000.28,0000.01,0000.38,0000.17,17.6,23.9,06.3,04.3,0675.8,30.9
2021-07-17T10:07:00Z,00000200,00000000,0000.69,0000.20,0000.43,-000.12,-000.15,0000.09,0000.45,-000.05,-000.20,17.5,23.9,06.5,04.4,0675.8,30.9
2021-07-17T10:08:00Z,00000200,00000000,0000.79,-000.04,0000.18,0000.45,-000.04,0000.08,-000.02,0000.27,-000.13,17.5,23.9,06.6,04.5,0675.8,30.9
2021-07-17T10:09:00Z,00000200,00000000,0001.15,0000.54,0000.22,0000.25,0000.23,0000.13,0000.41,0000.29,0000.77,17.6,23.8,06.5,04.4,0675.8,30.9
2021-07-17T10:10:00Z,00000200,00000000,0001.19,0000.20,0000.15,0000.43,0000.01,0000.04,0000.05,-000.17,-000.09,17.6,23.8,06.5,04.4,0675.8,30.9
2021-07-17T10:11:00Z,00000200,00000000,0000.47,0000.28,0000.05,-000.15,-000.22,0000.02,-000.30,0000.61,-000.16,17.5,23.8,06.5,04.4,0675.7,30.9
2021-07-17T10:12:00Z,00000200,00000000,0000.86,0000.28,0000.19,0000.28,-000.19,-000.08,0000.56,-000.13,-000.02,17.5,23.8,06.6,04.5,0675.7,30.9
2021-07-17T10:13:00Z,00000200,00000000,0001.09,0000.66,-000.13,0000.21,-000.06,0000.01,-000.21,0000.12,0000.58,17.5,23.8,06.5,04.4,0675.8,30.9
2021-07-17T10:14:00Z,00000200,00000000,-000.03,0000.15,0000.21,0000.38,-000.08,-000.13,0000.26,-000.03,-000.33,17.5,23.8,06.7,04.5,0675.8,30.9
2021-07-17T10:15:00Z,00000200,00000000,0000.60,0000.24,0000.07,0000.10,0000.31,0000.08,-000.04,0000.25,0000.25,17.5,23.8,06.6,04.5,0675.8,30.9
2021-07-17T10:16:00Z,00000200,00000000,0001.05,0000.20,0000.24,-000.28,0000.01,0000.06,0000.10,-000.08,-000.13,17.5,23.8,06.6,04.5,0675.8,30.9
2021-07-17T10:17:00Z,00000200,00000000,0000.18,0000.44,-000.13,-000.29,0000.30,-000.21,0000.21,0000.03,-000.02,17.5,23.8,06.6,04.5,0675.8,30.9
2021-07-17T10:18:00Z,00000200,00000000,0000.61,0000.33,0000.06,0000.30,-000.01,0000.12,-000.32,-000.23,0000.24,17.5,23.8,06.3,04.3,0675.8,30.9
2021-07-17T10:19:00Z,00000200,00000000,0000.13,0000.47,-000.17,-000.15,0000.12,0000.01,0000.29,0000.45,0000.01,17.5,23.8,06.5,04.4,0675.7,30.9
2021-07-17T10:20:00Z,00000200,00000000,0000.52,0000.37,0000.10,0000.37,-000.23,-000.13,0000.38,-000.05,0000.19,17.5,23.8,06.3,04.3,0675.8,30.9
2021-07-17T10:21:00Z,00000200,00000000,0000.75,0000.64,0000.14,0000.51,0000.08,-000.03,-000.33,-000.27,-000.26,17.5,23.8,06.4,04.3,0675.7,30.9
2021-07-17T10:22:00Z,00000200,00000000,0000.89,0000.63,0000.29,0000.41,-000.28,-000.04,0000.44,0000.74,0000.42,17.5,23.8,06.3,04.2,0675.8,30.9
2021-07-17T10:23:00Z,00000200,00000000,-000.00,0000.42,0000.44,-000.19,0000.08,0000.40,-000.24,-000.42,-000.10,17.5,23.8,06.4,04.3,0675.7,30.9
2021-07-17T10:24:00Z,00000200,00000000,0000.93,0000.52,0000.23,-000.15,0000.06,-000.05,0000.48,0000.69,0000.28,17.5,23.8,06.4,04.3,0675.8,31.0
2021-07-17T10:25:00Z,00000200,00000000,0000.70,0000.38,0000.08,0000.35,-000.03,0000.10,0000.45,-000.14,0000.25,17.5,23.8,06.5,04.4,0675.8,30.9
2021-07-17T10:26:00Z,00000200,00000000,0000.50,0000.63,0000.67,-000.07,0000.01,0000.12,0000.09,0000.30,-000.12,17.5,23.8,06.7,04.5,0675.8,30.9
2021-07-17T10:27:00Z,00000200,00000000,0000.57,0000.26,-000.18,0000.20,-000.01,-000.23,0000.02,-000.28,0000.14,17.5,23.7,06.7,04.5,0675.8,30.9
2021-07-17T10:28:00Z,00000200,00000000,0001.02,0000.41,0000.10,0000.37,0000.25,0000.16,0000.09,0000.66,0000.14,17.5,23.7,06.7,04.5,0675.8,30.9
2021-07-17T10:29:00Z,00000200,00000000,0000.74,0000.16,-000.04,0000.36,0000.03,0000.04,-000.11,-000.24,-000.01,17.5,23.7,06.6,04.4,0675.8,30.9
2021-07-17T10:30:00Z,00000200,00000000,0000.93,0000.64,0000.45,-000.57,0000.01,0000.34,0000.34,0000.28,0000.21,17.5,23.7,06.5,04.4,0675.8,30.9
2021-07-17T10:31:00Z,00000200,00000000,0000.98,0000.38,0000.10,-000.33,-000.06,-000.07,0000.07,0000.01,0000.20,17.5,23.7,06.5,04.4,0675.8,30.9
2021-07-17T10:32:00Z,00000200,00000000,0000.87,0000.24,0000.20,-000.12,0000.14,-000.00,0000.21,0000.34,-000.04,17.5,23.7,06.6,04.5,0675.8,30.9
2021-07-17T10:33:00Z,00000200,00000000,0000.60,0000.09,0000.39,-000.12,-000.22,-000.42,-000.01,-000.18,0000.08,17.5,23.7,06.8,04.6,0675.8,30.9
2021-07-17T10:34:00Z,00000200,00000000,0000.82,0000.40,0000.38,-000.12,-000.07,-000.09,0000.33,0000.36,-000.01,17.5,23.7,06.7,04.5,0675.8,30.9
2021-07-17T10:35:00Z,00000200,00000000,0000.23,0000.55,0000.45,0000.35,0000.08,0000.08,0000.45,0000.38,0000.56,17.5,23.7,06.7,04.5,0675.8,30.9
2021-07-17T10:36:00Z,00000200,00000000,0000.61,0000.39,0000.51,0000.21,-000.04,0000.18,0000.09,0000.15,0000.09,17.5,23.7,06.7,04.5,0675.8,30.9
2021-07-17T10:37:00Z,00000200,00000000,0000.97,0000.56,0000.11,0000.30,0000.39,0000.29,-000.04,-000.17,0000.09,17.6,23.8,06.7,04.6,0675.7,30.9
2021-07-17T10:38:00Z,00000200,00000000,0001.04,0000.46,0000.52,-000.57,-000.02,0000.20,0000.34,0000.24,-000.26,17.6,23.8,06.6,04.5,0675.7,30.9
2021-07-17T10:39:00Z,00000200,00000000,0001.32,0000.47,0000.20,-000.05,-000.03,-000.39,-000.04,0000.18,0000.11,17.6,23.8,06.6,04.5,0675.7,30.9
2021-07-17T10:40:00Z,00000200,00000000,0000.49,0000.51,0000.12,0000.49,0000.23,-000.11,0000.19,0000.19,0000.24,17.6,23.8,06.6,04.5,0675.7,30.9
2021-07-17T10:41:00Z,00000200,00000000,0000.63,0000.16,0000.39,0000.27,-000.07,0000.07,-000.02,0000.05,-000.05,17.6,23.8,06.6,04.5,0675.6,30.9
2021-07-17T10:42:00Z,00000200,00000000,0000.02,0000.56,0000.13,-000.12,0000.08,-000.08,0000.31,0000.17,0000.33,17.6,23.8,06.5,04.4,0675.7,30.9
2021-07-17T10:43:00Z,00000200,00000000,0000.58,0000.53,0000.35,-000.33,0000.49,-000.06,0000.24,0000.10,0000.07,17.6,23.8,06.7,04.6,0675.7,30.9
2021-07-17T10:44:00Z,00000200,00000000,0000.64,0001.01,-000.05,-000.20,-000.01,0000.10,0000.10,-000.13,-000.18,17.6,23.8,06.6,04.5,0675.6,30.9
2021-07-17T10:45:00Z,00000200,00000000,0000.59,0000.57,0000.31,0000.01,0000.13,0000.26,0000.03,0000.07,0000.33,17.6,23.8,06.4,04.4,0675.5,30.9
2021-07-17T10:46:00Z,00000200,00000000,0001.01,0000.34,0000.28,0000.21,-000.03,0000.01,-000.07,0000.33,-000.17,17.6,23.8,06.2,04.2,0675.5,31.0
2021-07-17T10:47:00Z,00000200,00000000,0000.88,0000.42,0000.28,0000.15,0000.06,0000.11,0000.75,0000.18,0000.24,17.6,23.7,06.2,04.2,0675.6,30.9
2021-07-17T10:48:00Z,00000200,00000000,0000.82,0000.98,0000.06,0000.39,0000.20,0000.15,-000.18,0000.33,0000.11,17.6,23.7,06.5,04.4,0675.6,30.9
2021-07-17T10:49:00Z,00000200,00000000,0001.41,0000.24,0000.44,-000.09,0000.00,-000.01,0000.34,0000.07,0000.41,17.6,23.8,06.6,04.5,0675.6,30.9
2021-07-17T10:50:00Z,00000200,00000000,0001.52,0000.54,0000.40,0000.68,0000.33,-000.25,0000.19,0000.01,-000.03,17.6,23.7,06.7,04.6,0675.6,30.9
2021-07-17T10:51:00Z,00000200,00000000,0000.82,0000.50,0000.18,0000.72,-000.08,0000.04,0000.26,0000.53,0000.21,17.6,23.7,06.6,04.5,0675.6,30.9
2021-07-17T10:52:00Z,00000200,00000000,0000.92,0000.52,0000.55,-000.06,-000.04,-000.04,0000.18,0000.27,0000.13,17.6,23.7,06.8,04.7,0675.7,30.9
2021-07-17T10:53:00Z,00000200,00000000,0001.23,0000.59,0000.55,0000.04,-000.01,-000.10,0000.15,-000.04,0000.28,17.6,23.7,06.9,04.7,0675.6,30.9
2021-07-17T10:54:00Z,00000200,00000000,0000.77,0000.73,0000.36,-000.42,0000.23,0000.20,0000.26,0000.45,0000.23,17.6,23.7,06.8,04.6,0675.7,30.9
2021-07-17T10:55:00Z,00000200,00000000,0000.98,0000.47,0000.21,0000.26,-000.24,-000.04,0000.43,0000.16,-000.00,17.6,23.7,06.9,04.7,0675.7,30.9
2021-07-17T10:56:00Z,00000200,00000000,0000.94,0000.92,0000.48,0000.38,-000.20,0000.24,-000.25,0000.03,0000.16,17.6,23.7,06.9,04.7,0675.6,30.9
2021-07-17T10:57:00Z,00000200,40000000,,,,,,,0000.07,-000.13,-000.23,17.6,23.8,07.3,05.0,0675.6,30.9
2021-07-17T10:58:00Z,00000200,60000000,,,,,,,-000.02,-000.06,-000.13,17.4,23.9,06.7,04.5,0674.7,31.0
2021-07-17T10:59:00Z,00000200,20000000,,,,,,,0000.13,-000.11,0000.23,17.4,24.0,06.6,04.4,0674.6,31.0
